Date String (YYYY-MM-DD hh:mm:ss) UTC,Instrument flags,Ambient pressure (hPa),Sample flow (lpm),Bypass flow (lpm),Sample temperature (°C),Ambient temperature (°C),ASC tube jacket temperature (°C),LED temperature (°C),Box temperature (°C),Sample RH (%),Span deviation,Mass concentration (μg/m³),Mass concentration (μg/m³),Mass concentration (μg/m³)
DateTimeUTC,F1_M11,P_M11,Q1_M11,Q2_M11,T1_M11,T2_M11,T3_M11,T4_M11,T5_M11,U1_M11,ZSPAN_M11,X2_M11,X0_M11,X1_M11
2023-03-07 20:00:00,,0824.6,5.00,0.00,22.2,20.5,00.0,31.0,23.8,13.0,-000.3,0005.63,0008.10,0005.38
2023-03-07 20:01:00,,0824.6,4.99,0.00,22.2,20.4,00.0,31.0,23.8,13.0,-000.8,0005.66,0008.14,0005.38
2023-03-07 20:02:00,,0824.7,5.00,0.00,22.1,20.3,00.0,31.0,23.7,13.3,-001.2,0005.71,0008.20,0005.40
2023-03-07 20:03:00,,0824.7,4.99,0.00,22.1,20.2,00.0,31.0,23.7,13.5,-000.9,0005.74,0008.49,0005.40
2023-03-07 20:04:00,,0824.7,5.00,0.00,22.1,20.2,00.0,31.0,23.6,13.1,-001.2,0005.74,0008.76,0005.42
2023-03-07 20:05:00,,0824.7,5.00,0.00,22.0,20.1,00.0,30.9,23.6,12.8,-001.5,0005.72,0008.70,0005.42
2023-03-07 20:06:00,,0824.6,5.00,0.00,22.0,20.1,00.0,30.9,23.5,13.1,-001.5,0005.74,0008.74,0005.43
2023-03-07 20:07:00,,0824.5,5.00,0.00,22.0,20.1,00.0,30.9,23.5,12.8,-001.7,0005.78,0008.82,0005.44
2023-03-07 20:08:00,,0824.6,5.00,0.00,21.9,20.0,00.0,30.9,23.5,12.3,-001.8,0005.79,0008.79,0005.46
2023-03-07 20:09:00,,0824.6,5.00,0.00,21.9,20.0,00.0,30.8,23.5,12.4,-001.5,0005.83,0008.97,0005.48
2023-03-07 20:10:00,,0824.8,5.02,0.00,21.9,21.2,00.0,30.8,23.7,12.6,-001.8,0005.86,0009.01,0005.49
2023-03-07 20:11:00,,0824.7,4.99,0.00,22.1,22.5,00.0,30.8,24.1,12.8,-001.7,0005.89,0009.09,0005.51
2023-03-07 20:12:00,,0824.6,5.01,0.00,22.2,22.6,00.0,30.9,24.1,12.5,-001.3,0005.91,0009.25,0005.54
2023-03-07 20:13:00,,0824.6,5.02,0.00,22.2,22.0,00.0,30.9,24.0,12.5,-000.5,0005.96,0009.29,0005.58
2023-03-07 20:14:00,,0824.6,4.99,0.00,22.2,21.5,00.0,30.9,23.9,12.2,0000.0,0005.99,0009.26,0005.62
2023-03-07 20:15:00,,0824.6,4.99,0.00,22.2,21.2,00.0,30.9,23.9,12.3,0000.0,0006.02,0008.80,0005.65
2023-03-07 20:16:00,,0824.6,5.00,0.00,22.1,20.9,00.0,30.9,23.8,12.1,0000.0,0006.09,0008.90,0005.69
2023-03-07 20:17:00,,0824.7,4.99,0.00,22.1,20.6,00.0,30.9,23.7,12.1,-000.5,0006.11,0008.92,0005.73
2023-03-07 20:18:00,,0824.6,4.99,0.00,22.0,20.4,00.0,30.9,23.6,12.1,-000.7,0006.11,0008.86,0005.76
2023-03-07 20:19:00,,0824.6,5.00,0.00,22.0,20.3,00.0,30.9,23.5,12.3,-001.2,0006.13,0008.85,0005.79
2023-03-07 20:20:00,,0825.0,5.00,0.00,22.0,20.2,00.0,30.9,23.5,12.5,-001.2,0006.13,0008.74,0005.82
2023-03-07 20:21:00,,0824.5,5.01,0.00,21.9,20.1,00.0,30.8,23.5,12.7,-001.1,0006.14,0008.69,0005.84
2023-03-07 20:22:00,,0824.5,4.99,0.00,21.9,20.1,00.0,30.8,23.4,12.5,-001.1,0006.13,0008.61,0005.85
2023-03-07 20:23:00,,0824.4,5.01,0.00,21.9,20.1,00.0,30.8,23.5,12.8,-000.5,0006.12,0008.49,0005.86
2023-03-07 20:24:00,,0824.4,5.01,0.00,21.9,20.1,00.0,30.8,23.5,12.9,-000.0,0006.10,0008.69,0005.85
2023-03-07 20:25:00,,0824.4,5.00,0.00,21.9,20.1,00.0,30.8,23.5,13.0,0000.0,0006.13,0008.74,0005.85
2023-03-07 20:26:00,,0824.4,5.00,0.00,21.9,20.1,00.0,30.8,23.5,13.0,0000.0,0006.13,0008.75,0005.85
2023-03-07 20:27:00,,0824.4,4.99,0.00,21.9,20.1,00.0,30.7,23.5,13.0,0000.0,0006.11,0008.71,0005.83
2023-03-07 20:28:00,,0824.5,5.00,0.00,21.9,20.1,00.0,30.7,23.5,12.7,0000.0,0006.11,0008.71,0005.82
2023-03-07 20:29:00,,0824.4,5.00,0.00,21.9,20.1,00.0,30.7,23.5,12.9,0000.0,0006.11,0008.71,0005.82
2023-03-07 20:30:00,,0824.5,5.00,0.00,21.9,20.2,00.0,30.7,23.5,13.0,0000.0,0006.09,0008.67,0005.82
2023-03-07 20:31:00,,0824.7,5.01,0.00,21.9,21.5,00.0,30.7,23.8,13.2,0000.0,0006.10,0008.69,0005.83
2023-03-07 20:32:00,,0824.5,4.99,0.00,22.1,22.7,00.0,30.7,24.1,13.2,0000.0,0006.14,0008.75,0005.86
2023-03-07 20:33:00,,0824.7,5.00,0.00,22.2,22.7,00.0,30.8,24.2,12.6,0000.0,0006.16,0008.78,0005.88
2023-03-07 20:34:00,,0824.4,5.01,0.00,22.2,22.3,00.0,30.8,24.1,12.4,-000.2,0006.17,0008.71,0005.90
2023-03-07 20:35:00,,0824.4,5.00,0.00,22.2,21.9,00.0,30.8,24.1,12.6,-001.6,0006.21,0008.47,0005.93
2023-03-07 20:36:00,,0824.5,5.00,0.00,22.3,21.7,00.0,30.9,24.1,12.5,-001.2,0006.21,0008.47,0005.96
2023-03-07 20:37:00,,0824.4,5.02,0.00,22.3,21.5,00.0,30.9,24.1,12.6,-000.7,0006.21,0008.53,0005.98
2023-03-07 20:38:00,,0824.4,5.01,0.00,22.3,21.3,00.0,30.9,24.0,12.9,-000.5,0006.24,0008.57,0006.01
2023-03-07 20:39:00,,0824.4,5.00,0.00,22.3,21.1,00.0,30.9,24.0,12.8,-000.7,0006.28,0008.61,0006.04
2023-03-07 20:40:00,,0824.5,5.00,0.00,22.3,21.0,00.0,30.9,24.0,12.4,-000.9,0006.31,0008.67,0006.06
2023-03-07 20:41:00,,0824.4,5.00,0.00,22.3,20.9,00.0,30.9,24.0,12.3,-000.8,0006.34,0008.76,0006.07
2023-03-07 20:42:00,,0824.5,5.01,0.00,22.2,20.9,00.0,30.9,24.0,12.6,-000.2,0006.38,0008.82,0006.08
2023-03-07 20:43:00,,0824.4,4.99,0.00,22.2,20.8,00.0,30.9,24.0,12.7,-000.6,0006.39,0008.82,0006.09
2023-03-07 20:44:00,,0824.4,5.01,0.00,22.2,20.8,00.0,30.9,24.0,12.5,-001.5,0006.41,0008.87,0006.11
2023-03-07 20:45:00,,0824.4,4.99,0.00,22.2,20.8,00.0,31.0,23.9,12.5,-001.2,0006.44,0008.91,0006.12
2023-03-07 20:46:00,,0824.4,5.01,0.00,22.2,20.7,00.0,31.0,23.9,12.7,-001.0,0006.45,0008.91,0006.12
2023-03-07 20:47:00,,0824.3,5.01,0.00,22.2,20.7,00.0,31.0,23.9,12.7,-001.3,0006.46,0008.90,0006.13
2023-03-07 20:48:00,,0824.4,5.01,0.00,22.2,20.7,00.0,30.9,23.9,12.6,-001.6,0006.47,0008.90,0006.14
2023-03-07 20:49:00,,0824.4,4.99,0.00,22.2,20.6,00.0,30.9,23.9,12.5,-001.1,0006.48,0008.92,0006.14
2023-03-07 20:50:00,,0824.4,5.00,0.00,22.2,20.6,00.0,30.9,23.9,12.6,0000.0,0006.50,0008.94,0006.14
2023-03-07 20:51:00,,0824.4,4.99,0.00,22.2,20.6,00.0,30.9,23.9,12.6,-000.8,0006.52,0008.97,0006.15
2023-03-07 20:52:00,,0824.4,5.00,0.00,22.2,20.5,00.0,30.9,23.8,12.6,-001.3,0006.53,0009.04,0006.15
2023-03-07 20:53:00,,0824.4,5.00,0.00,22.2,20.5,00.0,30.9,23.8,12.4,-001.0,0006.50,0008.98,0006.15
2023-03-07 20:54:00,,0824.3,5.00,0.00,22.1,20.4,00.0,30.9,23.8,12.4,-000.3,0006.51,0009.00,0006.15
2023-03-07 20:55:00,,0824.3,5.00,0.00,22.2,20.9,00.0,30.9,23.9,12.4,0000.8,0006.50,0008.98,0006.14
2023-03-07 20:56:00,,0824.3,5.02,0.00,22.3,22.1,00.0,30.9,24.2,12.4,0000.9,0006.50,0009.00,0006.14
2023-03-07 20:57:00,,0824.2,5.01,0.00,22.4,22.7,00.0,30.9,24.3,12.4,0000.5,0006.48,0008.97,0006.14
2023-03-07 20:58:00,,0824.2,4.99,0.00,22.4,22.4,00.0,31.0,24.3,12.4,-000.2,0006.50,0009.05,0006.15
2023-03-07 20:59:00,,0824.5,5.02,0.00,22.4,22.0,00.0,31.0,24.2,12.6,-000.6,0006.50,0009.23,0006.15
